| time (UTC) | temp C | wind direction | speed KPH | gust KPH | rain 1hr cm | rain 24hr cm | rain mn cm | humidity % | barometer mb |
| 20260505125012 | 18 | 328 | 3.2 | 4.8 | 0.00 | 0.00 | 0.00 | 54 | 1011.5 |
| 20260505124509 | 18 | 145 | 6.4 | 8.0 | 0.00 | 0.00 | 0.00 | 54 | 1011.7 |
| 20260505124005 | 18 | 248 | 8.0 | 8.0 | 0.00 | 0.00 | 0.00 | 53 | 1011.4 |
| 20260505123502 | 18 | 241 | 3.2 | 3.2 | 0.00 | 0.00 | 0.00 | 54 | 1011.4 |
| 20260505122958 | 18 | 190 | 3.2 | 3.2 | 0.00 | 0.00 | 0.00 | 55 | 1011.5 |
| 20260505122455 | 18 | 81 | 3.2 | 3.2 | 0.00 | 0.00 | 0.00 | 56 | 1011.3 |
| 20260505121952 | 18 | 273 | 6.4 | 11.3 | 0.00 | 0.00 | 0.00 | 57 | 1011.4 |
| 20260505121449 | 17 | 244 | 8.0 | 11.3 | 0.00 | 0.00 | 0.00 | 58 | 1011.1 |
| 20260505120945 | 17 | 271 | 0.0 | 0.0 | 0.00 | 0.00 | 0.00 | 60 | 1011.3 |
| 20260505120441 | 17 | 293 | 4.8 | 4.8 | 0.00 | 0.00 | 0.00 | 60 | 1011.1 |
| 20260505115940 | 17 | 99 | 0.0 | 0.0 | 0.00 | 0.00 | 0.00 | 61 | 1011.0 |
| 20260505115437 | 16 | 97 | 3.2 | 4.8 | 0.00 | 0.00 | 0.00 | 61 | 1011.1 |
| 20260505114935 | 16 | 93 | 3.2 | 3.2 | 0.00 | 0.00 | 0.00 | 63 | 1011.1 |
| 20260505114431 | 16 | 23 | 1.6 | 0.0 | 0.00 | 0.00 | 0.00 | 64 | 1011.1 |
| 20260505113927 | 16 | 84 | 4.8 | 4.8 | 0.00 | 0.00 | 0.00 | 65 | 1011.0 |
| 20260505113424 | 16 | 39 | 0.0 | 0.0 | 0.00 | 0.00 | 0.00 | 66 | 1011.0 |
| 20260505112920 | 15 | 353 | 0.0 | 0.0 | 0.00 | 0.00 | 0.00 | 67 | 1010.9 |
| 20260505112418 | 15 | 353 | 0.0 | 0.0 | 0.00 | 0.00 | 0.00 | 67 | 1011.2 |
| 20260505111914 | 15 | 344 | 0.0 | 0.0 | 0.00 | 0.00 | 0.00 | 67 | 1010.8 |
| 20260505111408 | 15 | 22 | 1.6 | 3.2 | 0.00 | 0.00 | 0.00 | 69 | 1010.9 |
| 20260505110905 | 15 | 9 | 1.6 | 0.0 | 0.00 | 0.00 | 0.00 | 69 | 1010.6 |
| 20260505110402 | 14 | 27 | 1.6 | 3.2 | 0.00 | 0.00 | 0.00 | 71 | 1010.8 |
| 20260505101833 | 14 | 16 | 1.6 | 3.2 | 0.00 | 0.00 | 0.00 | 70 | 1010.4 |
| 20260505101328 | 14 | 17 | 3.2 | 3.2 | 0.00 | 0.00 | 0.00 | 70 | 1010.4 |
| 20260505100824 | 14 | 2 | 0.0 | 3.2 | 0.00 | 0.00 | 0.00 | 70 | 1010.3 |
| 20260505100321 | 14 | 331 | 0.0 | 0.0 | 0.00 | 0.00 | 0.00 | 70 | 1010.4 |
| 20260505095816 | 14 | 314 | 1.6 | 3.2 | 0.00 | 0.00 | 0.00 | 70 | 1010.0 |
| 20260505095314 | 14 | 260 | 6.4 | 8.0 | 0.00 | 0.00 | 0.00 | 70 | 1010.0 |
| 20260505094809 | 14 | 32 | 0.0 | 0.0 | 0.00 | 0.00 | 0.00 | 70 | 1010.0 |
| 20260505094307 | 14 | 30 | 0.0 | 0.0 | 0.00 | 0.00 | 0.00 | 70 | 1009.9 |
| 20260505093802 | 14 | 29 | 0.0 | 0.0 | 0.00 | 0.00 | 0.00 | 69 | 1010.0 |
| 20260505093300 | 14 | 67 | 3.2 | 4.8 | 0.00 | 0.00 | 0.00 | 70 | 1010.0 |
| 20260505092757 | 14 | 13 | 0.0 | 0.0 | 0.00 | 0.00 | 0.00 | 70 | 1009.9 |
| 20260505092255 | 13 | 321 | 0.0 | 0.0 | 0.00 | 0.00 | 0.00 | 71 | 1010.1 |
| 20260505091752 | 13 | 130 | 1.6 | 3.2 | 0.00 | 0.00 | 0.00 | 72 | 1010.0 |
| 20260505091250 | 13 | 130 | 1.6 | 3.2 | 0.00 | 0.00 | 0.00 | 71 | 1009.9 |
| 20260505090748 | 13 | 130 | 0.0 | 0.0 | 0.00 | 0.00 | 0.00 | 70 | 1009.9 |
| 20260505090246 | 14 | 130 | 0.0 | 0.0 | 0.00 | 0.00 | 0.00 | 69 | 1010.1 |
| 20260505085743 | 14 | 130 | 0.0 | 0.0 | 0.00 | 0.00 | 0.00 | 69 | 1010.1 |
| 20260505085241 | 14 | 130 | 0.0 | 0.0 | 0.00 | 0.00 | 0.00 | 69 | 1009.9 |
| 20260505084738 | 14 | 130 | 0.0 | 0.0 | 0.00 | 0.00 | 0.00 | 68 | 1009.7 |
| 20260505084237 | 15 | 130 | 1.6 | 3.2 | 0.00 | 0.00 | 0.00 | 67 | 1009.7 |
| 20260505083734 | 15 | 130 | 1.6 | 3.2 | 0.00 | 0.00 | 0.00 | 67 | 1009.6 |
| 20260505083230 | 15 | 130 | 0.0 | 0.0 | 0.00 | 0.00 | 0.00 | 66 | 1009.9 |
| 20260505082726 | 15 | 130 | 0.0 | 0.0 | 0.00 | 0.00 | 0.00 | 65 | 1010.0 |
| 20260505082224 | 15 | 164 | 1.6 | 3.2 | 0.00 | 0.00 | 0.00 | 65 | 1009.9 |
| 20260505081719 | 15 | 121 | 1.6 | 0.0 | 0.00 | 0.00 | 0.00 | 65 | 1010.0 |
| 20260505081217 | 15 | 159 | 1.6 | 3.2 | 0.00 | 0.00 | 0.00 | 65 | 1009.8 |
| 20260505080714 | 15 | 159 | 0.0 | 0.0 | 0.00 | 0.00 | 0.00 | 63 | 1009.8 |
| 20260505080209 | 16 | 159 | 0.0 | 0.0 | 0.00 | 0.00 | 0.00 | 62 | 1009.9 |
| 20260505075705 | 16 | 159 | 0.0 | 0.0 | 0.00 | 0.00 | 0.00 | 61 | 1009.8 |
| 20260505075203 | 16 | 159 | 0.0 | 0.0 | 0.00 | 0.00 | 0.00 | 60 | 1010.0 |
| 20260505074700 | 16 | 159 | 3.2 | 3.2 | 0.00 | 0.00 | 0.00 | 60 | 1009.9 |
| 20260505074156 | 16 | 168 | 3.2 | 3.2 | 0.00 | 0.00 | 0.00 | 60 | 1009.8 |
| 20260505073654 | 16 | 210 | 0.0 | 0.0 | 0.00 | 0.00 | 0.00 | 60 | 1009.9 |
| 20260505073152 | 16 | 212 | 1.6 | 3.2 | 0.00 | 0.00 | 0.00 | 60 | 1009.9 |
| 20260505072648 | 16 | 236 | 1.6 | 3.2 | 0.00 | 0.00 | 0.00 | 59 | 1009.8 |
| 20260505072145 | 16 | 133 | 9.7 | 11.3 | 0.00 | 0.00 | 0.00 | 58 | 1009.7 |
| 20260505071640 | 16 | 132 | 8.0 | 8.0 | 0.00 | 0.00 | 0.00 | 58 | 1010.1 |
| 20260505071138 | 16 | 244 | 0.0 | 0.0 | 0.00 | 0.00 | 0.00 | 58 | 1009.9 |
| 20260505070635 | 16 | 244 | 1.6 | 3.2 | 0.00 | 0.00 | 0.00 | 58 | 1009.9 |
| 20260505070131 | 16 | 283 | 1.6 | 3.2 | 0.00 | 0.00 | 0.00 | 58 | 1010.1 |
| 20260505065627 | 16 | 305 | 0.0 | 0.0 | 0.00 | 0.00 | 0.00 | 59 | 1010.1 |
| 20260505065124 | 16 | 304 | 0.0 | 0.0 | 0.00 | 0.00 | 0.00 | 59 | 1010.1 |
| 20260505064621 | 16 | 299 | 0.0 | 0.0 | 0.00 | 0.00 | 0.00 | 60 | 1009.9 |
| 20260505064119 | 16 | 309 | 3.2 | 3.2 | 0.00 | 0.00 | 0.00 | 59 | 1010.0 |
| 20260505063616 | 16 | 32 | 0.0 | 0.0 | 0.00 | 0.00 | 0.00 | 57 | 1010.0 |
| 20260505063112 | 16 | 31 | 0.0 | 0.0 | 0.00 | 0.00 | 0.00 | 57 | 1010.0 |
| 20260505062609 | 16 | 31 | 3.2 | 3.2 | 0.00 | 0.00 | 0.00 | 56 | 1009.9 |
| 20260505062106 | 16 | 39 | 0.0 | 0.0 | 0.00 | 0.00 | 0.00 | 57 | 1010.0 |
| 20260505061603 | 16 | 39 | 0.0 | 3.2 | 0.00 | 0.00 | 0.00 | 56 | 1009.9 |
| 20260505061101 | 16 | 305 | 3.2 | 4.8 | 0.00 | 0.00 | 0.00 | 56 | 1009.9 |
| 20260505060558 | 16 | 4 | 0.0 | 3.2 | 0.00 | 0.00 | 0.00 | 58 | 1009.7 |
| 20260505060055 | 16 | 87 | 3.2 | 3.2 | 0.00 | 0.00 | 0.00 | 58 | 1009.8 |
| 20260505055550 | 16 | 336 | 0.0 | 0.0 | 0.00 | 0.00 | 0.00 | 57 | 1009.9 |
| 20260505055047 | 16 | 336 | 0.0 | 0.0 | 0.00 | 0.00 | 0.00 | 56 | 1009.7 |
| 20260505054544 | 16 | 75 | 1.6 | 3.2 | 0.00 | 0.00 | 0.00 | 56 | 1009.8 |
| 20260505054043 | 16 | 244 | 0.0 | 0.0 | 0.00 | 0.00 | 0.00 | 56 | 1009.6 |
| 20260505053539 | 16 | 244 | 1.6 | 3.2 | 0.00 | 0.00 | 0.00 | 55 | 1009.9 |
| 20260505053036 | 16 | 90 | 0.0 | 0.0 | 0.00 | 0.00 | 0.00 | 55 | 1009.9 |
| 20260505052533 | 16 | 90 | 0.0 | 0.0 | 0.00 | 0.00 | 0.00 | 55 | 1009.8 |
| 20260505052031 | 16 | 97 | 1.6 | 3.2 | 0.00 | 0.00 | 0.00 | 55 | 1009.9 |
| 20260505051527 | 16 | 123 | 0.0 | 0.0 | 0.00 | 0.00 | 0.00 | 54 | 1009.8 |
| 20260505051025 | 16 | 123 | 3.2 | 3.2 | 0.00 | 0.00 | 0.00 | 54 | 1009.8 |
| 20260505050523 | 16 | 123 | 1.6 | 3.2 | 0.00 | 0.00 | 0.00 | 53 | 1009.9 |
| 20260505041451 | 16 | 106 | 3.2 | 3.2 | 0.00 | 0.00 | 0.00 | 50 | 1010.0 |
| 20260505040948 | 16 | 101 | 3.2 | 4.8 | 0.00 | 0.00 | 0.00 | 51 | 1009.8 |
| 20260505040446 | 16 | 75 | 3.2 | 4.8 | 0.00 | 0.00 | 0.00 | 50 | 1010.0 |
| 20260505035942 | 16 | 62 | 3.2 | 3.2 | 0.00 | 0.00 | 0.00 | 50 | 1009.7 |
| 20260505035438 | 16 | 171 | 1.6 | 3.2 | 0.00 | 0.00 | 0.00 | 50 | 1009.8 |
| 20260505034936 | 16 | 166 | 3.2 | 3.2 | 0.00 | 0.00 | 0.00 | 50 | 1009.8 |
| 20260505034432 | 16 | 166 | 1.6 | 3.2 | 0.00 | 0.00 | 0.00 | 50 | 1009.7 |
| 20260505033929 | 16 | 166 | 3.2 | 3.2 | 0.00 | 0.00 | 0.00 | 49 | 1009.6 |
| 20260505033426 | 16 | 166 | 0.0 | 0.0 | 0.00 | 0.00 | 0.00 | 49 | 1009.9 |
| 20260505032924 | 16 | 166 | 1.6 | 3.2 | 0.00 | 0.00 | 0.00 | 48 | 1009.8 |
| 20260505032421 | 16 | 166 | 3.2 | 3.2 | 0.00 | 0.00 | 0.00 | 47 | 1009.7 |
| 20260505031918 | 16 | 166 | 1.6 | 3.2 | 0.00 | 0.00 | 0.00 | 47 | 1009.8 |
| 20260505031414 | 16 | 166 | 1.6 | 3.2 | 0.00 | 0.00 | 0.00 | 47 | 1009.6 |
| 20260505030911 | 17 | 167 | 1.6 | 0.0 | 0.00 | 0.00 | 0.00 | 47 | 1009.7 |
| 20260505030407 | 17 | 167 | 3.2 | 3.2 | 0.00 | 0.00 | 0.00 | 46 | 1009.9 |
| 20260505025902 | 17 | 167 | 0.0 | 0.0 | 0.00 | 0.00 | 0.00 | 46 | 1009.7 |
| 20260505025401 | 17 | 167 | 0.0 | 0.0 | 0.00 | 0.00 | 0.00 | 45 | 1009.7 |
| 20260505024859 | 17 | 167 | 1.6 | 3.2 | 0.00 | 0.00 | 0.00 | 46 | 1009.6 |
| 20260505024356 | 17 | 167 | 0.0 | 0.0 | 0.00 | 0.00 | 0.00 | 45 | 1009.7 |
| 20260505023853 | 17 | 167 | 1.6 | 3.2 | 0.00 | 0.00 | 0.00 | 44 | 1009.8 |
| 20260505023350 | 17 | 168 | 0.0 | 0.0 | 0.00 | 0.00 | 0.00 | 45 | 1009.8 |
| 20260505022847 | 17 | 177 | 1.6 | 3.2 | 0.00 | 0.00 | 0.00 | 45 | 1010.2 |
| 20260505022344 | 17 | 177 | 0.0 | 0.0 | 0.00 | 0.00 | 0.00 | 45 | 1009.9 |
| 20260505021842 | 17 | 179 | 1.6 | 3.2 | 0.00 | 0.00 | 0.00 | 46 | 1009.9 |
| 20260505021338 | 17 | 192 | 0.0 | 0.0 | 0.00 | 0.00 | 0.00 | 46 | 1010.1 |
| 20260505020834 | 17 | 192 | 3.2 | 3.2 | 0.00 | 0.00 | 0.00 | 45 | 1010.1 |
| 20260505020330 | 17 | 194 | 0.0 | 3.2 | 0.00 | 0.00 | 0.00 | 46 | 1009.9 |
| 20260505015827 | 17 | 194 | 1.6 | 3.2 | 0.00 | 0.00 | 0.00 | 46 | 1009.9 |
| 20260505015324 | 16 | 194 | 3.2 | 4.8 | 0.00 | 0.00 | 0.00 | 48 | 1009.9 |
| 20260505014821 | 16 | 262 | 0.0 | 0.0 | 0.00 | 0.00 | 0.00 | 50 | 1010.1 |
| 20260505014318 | 15 | 266 | 3.2 | 3.2 | 0.00 | 0.00 | 0.00 | 51 | 1009.9 |
| 20260505013814 | 15 | 155 | 0.0 | 0.0 | 0.00 | 0.00 | 0.00 | 54 | 1009.8 |
| 20260505013312 | 15 | 155 | 0.0 | 0.0 | 0.00 | 0.00 | 0.00 | 53 | 1010.0 |
| 20260505012810 | 15 | 155 | 0.0 | 0.0 | 0.00 | 0.00 | 0.00 | 53 | 1009.9 |
| 20260505012308 | 16 | 155 | 0.0 | 0.0 | 0.00 | 0.00 | 0.00 | 51 | 1009.7 |
| 20260505011803 | 16 | 155 | 0.0 | 0.0 | 0.00 | 0.00 | 0.00 | 51 | 1009.9 |
| 20260505011301 | 16 | 155 | 0.0 | 0.0 | 0.00 | 0.00 | 0.00 | 49 | 1009.9 |
| 20260505010756 | 16 | 155 | 0.0 | 0.0 | 0.00 | 0.00 | 0.00 | 48 | 1009.6 |
| 20260505010252 | 17 | 155 | 0.0 | 0.0 | 0.00 | 0.00 | 0.00 | 47 | 1009.8 |
| 20260505005748 | 17 | 155 | 0.0 | 0.0 | 0.00 | 0.00 | 0.00 | 45 | 1009.6 |
| 20260505005246 | 17 | 155 | 0.0 | 0.0 | 0.00 | 0.00 | 0.00 | 45 | 1009.5 |
| 20260505004743 | 17 | 155 | 0.0 | 0.0 | 0.00 | 0.00 | 0.00 | 44 | 1009.4 |
| 20260505004239 | 18 | 155 | 0.0 | 0.0 | 0.00 | 0.00 | 0.00 | 43 | 1009.3 |
| 20260505003737 | 18 | 155 | 0.0 | 0.0 | 0.00 | 0.00 | 0.00 | 42 | 1009.4 |
| 20260505003235 | 18 | 155 | 0.0 | 0.0 | 0.00 | 0.00 | 0.00 | 41 | 1009.3 |
| 20260505002730 | 18 | 155 | 1.6 | 3.2 | 0.00 | 0.00 | 0.00 | 40 | 1009.5 |
| 20260505002228 | 19 | 156 | 1.6 | 3.2 | 0.00 | 0.00 | 0.00 | 40 | 1009.3 |
| 20260505001725 | 19 | 156 | 1.6 | 3.2 | 0.00 | 0.00 | 0.00 | 40 | 1009.5 |
| 20260505001223 | 20 | 158 | 1.6 | 3.2 | 0.00 | 0.00 | 0.00 | 38 | 1009.2 |
| 20260505000719 | 20 | 226 | 3.2 | 3.2 | 0.00 | 0.00 | 0.00 | 38 | 1009.2 |
| 20260505000218 | 20 | 261 | 0.0 | 0.0 | 0.00 | 0.00 | 0.00 | 37 | 1009.2 |
| 20260504235713 | 20 | 261 | 3.2 | 3.2 | 0.00 | 0.00 | 0.00 | 37 | 1009.3 |
| 20260504235210 | 20 | 219 | 0.0 | 0.0 | 0.00 | 0.00 | 0.00 | 37 | 1009.0 |
| 20260504234707 | 20 | 225 | 0.0 | 0.0 | 0.00 | 0.00 | 0.00 | 37 | 1009.4 |
| 20260504234204 | 20 | 175 | 6.4 | 8.0 | 0.00 | 0.00 | 0.00 | 36 | 1009.1 |
| 20260504233700 | 21 | 148 | 4.8 | 4.8 | 0.00 | 0.00 | 0.00 | 36 | 1009.3 |
| 20260504233156 | 21 | 194 | 3.2 | 3.2 | 0.00 | 0.00 | 0.00 | 35 | 1009.2 |
| 20260504232654 | 21 | 155 | 8.0 | 11.3 | 0.00 | 0.00 | 0.00 | 35 | 1009.1 |
| 20260504232151 | 21 | 264 | 4.8 | 4.8 | 0.00 | 0.00 | 0.00 | 34 | 1009.1 |
| 20260504231648 | 21 | 223 | 11.3 | 11.3 | 0.00 | 0.00 | 0.00 | 33 | 1009.3 |
| 20260504231144 | 21 | 173 | 9.7 | 11.3 | 0.00 | 0.00 | 0.00 | 34 | 1009.2 |
| 20260504230640 | 21 | 192 | 6.4 | 8.0 | 0.00 | 0.00 | 0.00 | 33 | 1009.3 |
| 20260504230139 | 21 | 145 | 3.2 | 4.8 | 0.00 | 0.00 | 0.00 | 33 | 1009.2 |
| 20260504225637 | 21 | 147 | 6.4 | 8.0 | 0.00 | 0.00 | 0.00 | 33 | 1009.0 |
| 20260504225132 | 21 | 197 | 4.8 | 4.8 | 0.00 | 0.00 | 0.00 | 34 | 1009.1 |
| 20260504224629 | 21 | 234 | 4.8 | 4.8 | 0.00 | 0.00 | 0.00 | 33 | 1009.3 |
| 20260504224126 | 22 | 211 | 4.8 | 4.8 | 0.00 | 0.00 | 0.00 | 34 | 1009.2 |
| 20260504223624 | 22 | 177 | 1.6 | 3.2 | 0.00 | 0.00 | 0.00 | 34 | 1009.4 |
| 20260504223119 | 22 | 177 | 3.2 | 4.8 | 0.00 | 0.00 | 0.00 | 34 | 1009.1 |
| 20260504222616 | 22 | 186 | 4.8 | 8.0 | 0.00 | 0.00 | 0.00 | 33 | 1009.3 |
| 20260504222113 | 22 | 137 | 8.0 | 11.3 | 0.00 | 0.00 | 0.00 | 33 | 1009.3 |
| 20260504221610 | 22 | 163 | 8.0 | 11.3 | 0.00 | 0.00 | 0.00 | 33 | 1009.3 |
| 20260504221108 | 22 | 337 | 6.4 | 8.0 | 0.00 | 0.00 | 0.00 | 33 | 1009.3 |
| 20260504220604 | 22 | 121 | 4.8 | 4.8 | 0.00 | 0.00 | 0.00 | 31 | 1009.3 |
| 20260504215558 | 22 | 100 | 4.8 | 4.8 | 0.00 | 0.00 | 0.00 | 32 | 1009.2 |
| 20260504215055 | 22 | 279 | 4.8 | 4.8 | 0.00 | 0.00 | 0.00 | 32 | 1009.2 |
| 20260504214550 | 22 | 123 | 3.2 | 4.8 | 0.00 | 0.00 | 0.00 | 33 | 1009.4 |
| 20260504214047 | 22 | 216 | 3.2 | 3.2 | 0.00 | 0.00 | 0.00 | 34 | 1009.3 |
| 20260504213543 | 22 | 160 | 6.4 | 8.0 | 0.00 | 0.00 | 0.00 | 34 | 1009.1 |
| 20260504213041 | 22 | 247 | 4.8 | 4.8 | 0.00 | 0.00 | 0.00 | 33 | 1009.4 |
| 20260504212536 | 22 | 229 | 12.9 | 16.1 | 0.00 | 0.00 | 0.00 | 32 | 1009.4 |
| 20260504212034 | 22 | 148 | 6.4 | 8.0 | 0.00 | 0.00 | 0.00 | 33 | 1009.3 |
| 20260504211531 | 22 | 166 | 6.4 | 8.0 | 0.00 | 0.00 | 0.00 | 33 | 1009.2 |
| 20260504211028 | 22 | 144 | 6.4 | 11.3 | 0.00 | 0.00 | 0.00 | 32 | 1009.3 |
| 20260504210525 | 22 | 255 | 9.7 | 11.3 | 0.00 | 0.00 | 0.00 | 31 | 1009.4 |
| 20260504210022 | 22 | 245 | 11.3 | 16.1 | 0.00 | 0.00 | 0.00 | 32 | 1009.4 |
| 20260504205520 | 23 | 179 | 9.7 | 11.3 | 0.00 | 0.00 | 0.00 | 31 | 1009.3 |
| 20260504205017 | 23 | 170 | 11.3 | 16.1 | 0.00 | 0.00 | 0.00 | 31 | 1009.3 |
| 20260504204515 | 23 | 139 | 17.7 | 24.1 | 0.00 | 0.00 | 0.00 | 31 | 1009.4 |
| 20260504204014 | 22 | 191 | 8.0 | 11.3 | 0.00 | 0.00 | 0.00 | 34 | 1009.3 |
| 20260504203512 | 22 | 244 | 12.9 | 19.3 | 0.00 | 0.00 | 0.00 | 33 | 1009.5 |
| 20260504203009 | 23 | 148 | 6.4 | 11.3 | 0.00 | 0.00 | 0.00 | 32 | 1009.4 |
| 20260504202504 | 22 | 169 | 9.7 | 14.5 | 0.00 | 0.00 | 0.00 | 33 | 1009.5 |
| 20260504202001 | 23 | 180 | 9.7 | 11.3 | 0.00 | 0.00 | 0.00 | 33 | 1009.6 |
| 20260504201458 | 23 | 234 | 9.7 | 14.5 | 0.00 | 0.00 | 0.00 | 32 | 1009.7 |
| 20260504200955 | 23 | 146 | 9.7 | 14.5 | 0.00 | 0.00 | 0.00 | 32 | 1009.5 |
| 20260504200452 | 23 | 158 | 6.4 | 8.0 | 0.00 | 0.00 | 0.00 | 32 | 1009.6 |
| 20260504195949 | 23 | 211 | 8.0 | 11.3 | 0.00 | 0.00 | 0.00 | 33 | 1009.7 |
| 20260504195444 | 23 | 193 | 9.7 | 11.3 | 0.00 | 0.00 | 0.00 | 34 | 1009.5 |
| 20260504194941 | 22 | 190 | 6.4 | 8.0 | 0.00 | 0.00 | 0.00 | 35 | 1009.8 |
| 20260504194438 | 22 | 111 | 6.4 | 8.0 | 0.00 | 0.00 | 0.00 | 33 | 1009.9 |
| 20260504193933 | 23 | 269 | 9.7 | 11.3 | 0.00 | 0.00 | 0.00 | 32 | 1009.9 |
| 20260504193431 | 22 | 193 | 12.9 | 22.5 | 0.00 | 0.00 | 0.00 | 31 | 1010.1 |
| 20260504192930 | 22 | 193 | 8.0 | 11.3 | 0.00 | 0.00 | 0.00 | 34 | 1009.9 |
| 20260504192426 | 23 | 1 | 14.5 | 19.3 | 0.00 | 0.00 | 0.00 | 30 | 1009.9 |
| 20260504191925 | 22 | 232 | 12.9 | 19.3 | 0.00 | 0.00 | 0.00 | 30 | 1010.1 |
| 20260504191423 | 22 | 234 | 6.4 | 4.8 | 0.00 | 0.00 | 0.00 | 32 | 1010.0 |
| 20260504190918 | 22 | 171 | 11.3 | 16.1 | 0.00 | 0.00 | 0.00 | 32 | 1010.4 |
| 20260504190414 | 22 | 140 | 11.3 | 11.3 | 0.00 | 0.00 | 0.00 | 33 | 1010.2 |
| 20260504185911 | 22 | 242 | 3.2 | 3.2 | 0.00 | 0.00 | 0.00 | 30 | 1010.2 |
| 20260504185408 | 22 | 191 | 4.8 | 4.8 | 0.00 | 0.00 | 0.00 | 32 | 1010.5 |
| 20260504184904 | 22 | 200 | 14.5 | 16.1 | 0.00 | 0.00 | 0.00 | 31 | 1010.5 |
| 20260504184400 | 23 | 182 | 8.0 | 11.3 | 0.00 | 0.00 | 0.00 | 30 | 1010.5 |
| 20260504183856 | 22 | 200 | 3.2 | 3.2 | 0.00 | 0.00 | 0.00 | 35 | 1010.4 |
| 20260504183354 | 22 | 297 | 9.7 | 14.5 | 0.00 | 0.00 | 0.00 | 30 | 1010.5 |
| 20260504182851 | 22 | 232 | 12.9 | 19.3 | 0.00 | 0.00 | 0.00 | 30 | 1010.6 |
| 20260504182348 | 22 | 164 | 12.9 | 16.1 | 0.00 | 0.00 | 0.00 | 32 | 1010.9 |
| 20260504181845 | 22 | 188 | 9.7 | 11.3 | 0.00 | 0.00 | 0.00 | 32 | 1011.0 |
| 20260504181342 | 22 | 264 | 16.1 | 24.1 | 0.00 | 0.00 | 0.00 | 31 | 1011.0 |
| 20260504180841 | 22 | 98 | 4.8 | 4.8 | 0.00 | 0.00 | 0.00 | 34 | 1010.8 |
| 20260504180339 | 22 | 166 | 6.4 | 8.0 | 0.00 | 0.00 | 0.00 | 35 | 1011.2 |
| 20260504175837 | 21 | 331 | 4.8 | 4.8 | 0.00 | 0.00 | 0.00 | 32 | 1011.1 |
| 20260504175333 | 21 | 126 | 9.7 | 14.5 | 0.00 | 0.00 | 0.00 | 35 | 1011.5 |
| 20260504174832 | 21 | 189 | 9.7 | 14.5 | 0.00 | 0.00 | 0.00 | 32 | 1011.2 |
| 20260504174329 | 21 | 142 | 12.9 | 14.5 | 0.00 | 0.00 | 0.00 | 30 | 1011.2 |
| 20260504173826 | 21 | 171 | 9.7 | 11.3 | 0.00 | 0.00 | 0.00 | 33 | 1011.5 |
| 20260504173322 | 21 | 183 | 6.4 | 8.0 | 0.00 | 0.00 | 0.00 | 33 | 1011.7 |
| 20260504172819 | 21 | 121 | 11.3 | 14.5 | 0.00 | 0.00 | 0.00 | 30 | 1011.8 |
| 20260504172316 | 21 | 252 | 14.5 | 16.1 | 0.00 | 0.00 | 0.00 | 30 | 1011.8 |
| 20260504171811 | 21 | 162 | 4.8 | 8.0 | 0.00 | 0.00 | 0.00 | 32 | 1011.8 |
| 20260504171309 | 21 | 234 | 11.3 | 14.5 | 0.00 | 0.00 | 0.00 | 31 | 1011.8 |
| 20260504170806 | 21 | 214 | 8.0 | 14.5 | 0.00 | 0.00 | 0.00 | 33 | 1011.9 |
| 20260504170303 | 21 | 286 | 14.5 | 19.3 | 0.00 | 0.00 | 0.00 | 31 | 1012.2 |
| 20260504160221 | 21 | 289 | 11.3 | 16.1 | 0.00 | 0.00 | 0.00 | 30 | 1012.9 |
| 20260504151150 | 18 | 123 | 9.7 | 16.1 | 0.00 | 0.00 | 0.00 | 35 | 1013.2 |
| 20260504150647 | 19 | 179 | 8.0 | 8.0 | 0.00 | 0.00 | 0.00 | 34 | 1013.4 |
| 20260504150144 | 18 | 302 | 9.7 | 11.3 | 0.00 | 0.00 | 0.00 | 38 | 1013.2 |
| 20260504141113 | 16 | 244 | 6.4 | 4.8 | 0.00 | 0.00 | 0.00 | 48 | 1013.5 |
| 20260504140609 | 16 | 124 | 6.4 | 8.0 | 0.00 | 0.00 | 0.00 | 49 | 1013.6 |
| 20260504140105 | 16 | 269 | 6.4 | 8.0 | 0.00 | 0.00 | 0.00 | 51 | 1013.8 |